TimeCDT,TemperatureF,Dew PointF,Humidity,Sea Level PressureIn,VisibilityMPH,Wind Direction,Wind SpeedMPH,Gust SpeedMPH,PrecipitationIn,Events,Conditions,WindDirDegrees,DateUTC
12:53 AM,77.0,71.1,82,30.24,10.0,SE,8.1,-,N/A,,Clear,130,2013-07-16 05:53:00
1:53 AM,75.9,70.0,82,30.24,10.0,ESE,6.9,-,N/A,,Clear,110,2013-07-16 06:53:00
2:53 AM,75.0,71.1,87,30.24,10.0,SE,4.6,-,N/A,,Clear,140,2013-07-16 07:53:00
3:53 AM,73.9,71.1,91,30.24,10.0,ESE,4.6,-,N/A,,Clear,120,2013-07-16 08:53:00
4:53 AM,73.9,70.0,87,30.24,10.0,East,6.9,-,N/A,,Clear,100,2013-07-16 09:53:00
5:53 AM,73.0,70.0,90,30.25,10.0,ESE,4.6,-,N/A,,Partly Cloudy,120,2013-07-16 10:53:00
6:53 AM,75.9,70.0,82,30.27,10.0,ENE,5.8,-,N/A,,Partly Cloudy,70,2013-07-16 11:53:00
7:53 AM,78.1,71.1,79,30.28,10.0,ESE,6.9,-,N/A,,Partly Cloudy,120,2013-07-16 12:53:00
8:53 AM,80.1,70.0,71,30.30,10.0,ESE,12.7,-,N/A,,Scattered Clouds,120,2013-07-16 13:53:00
9:53 AM,81.0,71.1,72,30.30,10.0,ESE,9.2,-,N/A,,Scattered Clouds,120,2013-07-16 14:53:00
10:53 AM,82.9,71.1,67,30.30,10.0,SE,8.1,-,N/A,,Scattered Clouds,130,2013-07-16 15:53:00
11:14 AM,84.2,71.6,66,30.32,10.0,ESE,9.2,-,N/A,,Mostly Cloudy,110,2013-07-16 16:14:00
11:42 AM,86.0,71.6,62,30.32,10.0,Variable,4.6,-,N/A,,Scattered Clouds,0,2013-07-16 16:42:00
11:53 AM,84.9,71.1,63,30.30,10.0,ESE,6.9,-,N/A,,Scattered Clouds,120,2013-07-16 16:53:00
12:53 PM,89.1,71.1,55,30.28,10.0,East,6.9,-,N/A,,Scattered Clouds,90,2013-07-16 17:53:00
1:53 PM,89.1,70.0,53,30.26,10.0,SE,8.1,-,N/A,,Scattered Clouds,140,2013-07-16 18:53:00
2:53 PM,91.0,71.1,52,30.25,10.0,Variable,6.9,-,N/A,,Scattered Clouds,0,2013-07-16 19:53:00
3:53 PM,90.0,71.1,54,30.24,10.0,SSE,8.1,-,N/A,,Scattered Clouds,150,2013-07-16 20:53:00
4:53 PM,90.0,70.0,52,30.23,10.0,SE,9.2,-,N/A,,Scattered Clouds,130,2013-07-16 21:53:00
5:53 PM,89.1,70.0,53,30.22,10.0,ESE,5.8,-,N/A,,Scattered Clouds,120,2013-07-16 22:53:00
6:53 PM,87.1,71.1,59,30.22,10.0,SE,6.9,-,N/A,,Partly Cloudy,130,2013-07-16 23:53:00
7:53 PM,84.9,71.1,63,30.22,10.0,ESE,4.6,-,N/A,,Partly Cloudy,120,2013-07-17 00:53:00
8:53 PM,81.0,72.0,74,30.24,10.0,Calm,Calm,-,N/A,,Partly Cloudy,0,2013-07-17 01:53:00
9:53 PM,78.1,71.1,79,30.26,10.0,Calm,Calm,-,N/A,,Partly Cloudy,0,2013-07-17 02:53:00
10:53 PM,75.9,72.0,87,30.28,10.0,Calm,Calm,-,N/A,,Partly Cloudy,0,2013-07-17 03:53:00
11:53 PM,77.0,72.0,84,30.27,10.0,Calm,Calm,-,N/A,,Partly Cloudy,0,2013-07-17 04:53:00